, AK

(GMT )
Eureka

Weather History for PAZK - October, 2013

Change the Weather History Date:

Monday, October 7, 2013

  Actual Average Record
Temperature  
Mean Temperature 32 °F -  
Max Temperature 37 °F 30 °F 42 °F (2006)
Min Temperature 28 °F 21 °F 17 °F (2014)
Degree Days  
Heating Degree Days 32    
Moisture  
Dew Point 27 °F    
Average Humidity 85    
Maximum Humidity 100    
Minimum Humidity 60    
Precipitation  
Precipitation 0.00 in - - ()
Sea Level Pressure  
Sea Level Pressure 29.71 in    
Wind  
Wind Speed 8 mph (West)    
Max Wind Speed 13 mph    
Max Gust Speed 18 mph    
Visibility 8 miles    
Events      
Averages and records for this station are not official NWS values.
T = Trace of Precipitation, MM = Missing Value Source: NWS Daily Summary

Daily Weather History Graph

Daily Weather History Graph

Search for Another Location

Airport or City:

Trip Planner

Search our weather history database for the weather conditions in past years. The results will help you decide how hot, cold, wet, or windy it might be!

Date:

Astronomy

Oct. 07, 2013 Rise Set
Actual Time 8:12 AM AKDT 6:58 PM AKDT
Civil Twilight 7:28 AM AKDT 7:42 PM AKDT
Nautical Twilight 6:36 AM AKDT 8:34 PM AKDT
Astronomical Twilight 5:43 AM AKDT 9:27 PM AKDT
Moon 12:14 PM AKDT (10/7) 7:46 PM AKDT (10/7)
Length of Visible Light 12h 14m
Length of Day
10h 46m
Waxing Crescent, 9% of the Moon is Illuminated
Oct 7
Waxing Crescent
Oct 11
First Quarter
Oct 18
Full
Oct 26
Last Quarter
Nov 3
New

Hourly Weather History & Observations

Time (AKDT) Temp. Windchill Dew Point Humidity Pressure Visibility Wind Dir Wind Speed Gust Speed Precip Events Conditions
12:16 AM 30.2 °F 23.4 °F 30.2 °F 100% 29.59 in 10.0 mi WSW 6.9 mph - N/A   Overcast
12:36 AM 30.2 °F 21.9 °F 30.2 °F 100% 29.59 in 2.5 mi WSW 9.2 mph - N/A   Overcast
12:56 AM 30.2 °F 21.9 °F 30.2 °F 100% 29.60 in 9.0 mi WSW 9.2 mph - N/A   Overcast
1:16 AM 30.2 °F 21.9 °F 28.4 °F 93% 29.60 in 10.0 mi WSW 9.2 mph - N/A   Overcast
1:36 AM 30.2 °F 21.9 °F 28.4 °F 93% 29.61 in 10.0 mi WSW 9.2 mph - N/A   Overcast
1:56 AM 30.2 °F 21.9 °F 28.4 °F 93% 29.61 in 9.0 mi WSW 9.2 mph - N/A   Overcast
2:16 AM 30.2 °F 21.3 °F 28.4 °F 93% 29.62 in 8.0 mi West 10.4 mph 17.3 mph N/A   Overcast
2:36 AM 30.2 °F 21.3 °F 28.4 °F 93% 29.62 in 10.0 mi West 10.4 mph 16.1 mph N/A   Overcast
2:56 AM 30.2 °F 21.9 °F 28.4 °F 93% 29.62 in 10.0 mi West 9.2 mph - N/A   Overcast
3:16 AM 28.4 °F 20.4 °F 26.6 °F 93% 29.62 in 10.0 mi West 8.1 mph - N/A   Overcast
3:36 AM 30.2 °F 21.3 °F 28.4 °F 93% 29.63 in 4.0 mi WSW 10.4 mph - N/A   Overcast
3:56 AM 30.2 °F 20.8 °F 28.4 °F 93% 29.63 in 2.5 mi West 11.5 mph 18.4 mph N/A   Overcast
4:16 AM 30.2 °F 20.2 °F 28.4 °F 93% 29.63 in 2.5 mi WSW 12.7 mph - N/A   Overcast
4:36 AM 30.2 °F 21.3 °F 28.4 °F 93% 29.64 in 1.0 mi WSW 10.4 mph - N/A   Overcast
4:56 AM 30.2 °F 21.9 °F 28.4 °F 93% 29.64 in 1.0 mi WSW 9.2 mph - N/A   Overcast
5:16 AM 30.2 °F 20.8 °F 28.4 °F 93% 29.64 in 1.2 mi WSW 11.5 mph 17.3 mph N/A   Overcast
5:36 AM 30.2 °F 21.9 °F 28.4 °F 93% 29.65 in 10.0 mi WSW 9.2 mph 16.1 mph N/A   Overcast
5:56 AM 30.2 °F 20.2 °F 28.4 °F 93% 29.65 in 9.0 mi WSW 12.7 mph 17.3 mph N/A   Overcast
6:16 AM 28.4 °F 19.7 °F 26.6 °F 93% 29.66 in 4.0 mi WSW 9.2 mph - N/A   Overcast
6:36 AM 28.4 °F 19.1 °F 26.6 °F 93% 29.66 in 1.0 mi WSW 10.4 mph 16.1 mph N/A   Overcast
6:56 AM 28.4 °F 18.0 °F 26.6 °F 93% 29.67 in 3.0 mi WSW 12.7 mph 18.4 mph N/A   Overcast
7:16 AM 28.4 °F 19.1 °F 28.4 °F 100% 29.68 in 5.0 mi WSW 10.4 mph - N/A   Overcast
7:36 AM 28.4 °F 18.0 °F 28.4 °F 100% 29.68 in 4.0 mi WSW 12.7 mph 16.1 mph N/A   Overcast
7:56 AM 28.4 °F 18.0 °F 28.4 °F 100% 29.68 in 1.8 mi West 12.7 mph - N/A   Overcast
8:16 AM 28.4 °F 18.0 °F 28.4 °F 100% 29.69 in 1.2 mi WSW 12.7 mph - N/A   Overcast
8:36 AM 28.4 °F 18.0 °F 26.6 °F 93% 29.70 in 2.5 mi WSW 12.7 mph - N/A   Overcast
8:56 AM 28.4 °F 19.1 °F 26.6 °F 93% 29.70 in 2.0 mi West 10.4 mph - N/A   Overcast
9:16 AM 28.4 °F 18.5 °F 28.4 °F 100% 29.71 in 3.0 mi West 11.5 mph - N/A   Overcast
9:36 AM 28.4 °F 19.1 °F 28.4 °F 100% 29.72 in 4.0 mi WSW 10.4 mph - N/A   Overcast
9:56 AM 30.2 °F 21.3 °F 28.4 °F 93% 29.72 in 9.0 mi WSW 10.4 mph 16.1 mph N/A   Overcast
10:16 AM 30.2 °F 20.8 °F 28.4 °F 93% 29.73 in 10.0 mi WSW 11.5 mph 16.1 mph N/A   Overcast
10:36 AM 28.4 °F 19.1 °F 28.4 °F 100% 29.73 in 10.0 mi West 10.4 mph 17.3 mph N/A   Mostly Cloudy
10:56 AM 30.2 °F 22.6 °F 28.4 °F 93% 29.73 in 10.0 mi WSW 8.1 mph - N/A   Overcast
11:16 AM 30.2 °F 20.2 °F 28.4 °F 93% 29.74 in 10.0 mi West 12.7 mph - N/A   Mostly Cloudy
11:36 AM 30.2 °F 21.3 °F 28.4 °F 93% 29.74 in 10.0 mi West 10.4 mph - N/A   Mostly Cloudy
11:56 AM 30.2 °F 20.8 °F 28.4 °F 93% 29.74 in 10.0 mi West 11.5 mph - N/A   Scattered Clouds
12:16 PM 32.0 °F 23.6 °F 30.2 °F 93% 29.74 in 10.0 mi West 10.4 mph - N/A   Mostly Cloudy
12:36 PM 33.8 °F 27.0 °F 30.2 °F 87% 29.74 in 10.0 mi West 8.1 mph - N/A   Scattered Clouds
12:56 PM 33.8 °F 27.7 °F 30.2 °F 87% 29.74 in 10.0 mi WSW 6.9 mph - N/A   Partly Cloudy
1:16 PM 33.8 °F 27.7 °F 28.4 °F 81% 29.75 in 10.0 mi WSW 6.9 mph - N/A   Clear
1:36 PM 33.8 °F 28.6 °F 26.6 °F 75% 29.75 in 10.0 mi WSW 5.8 mph - N/A   Clear
1:56 PM 35.6 °F 30.7 °F 30.2 °F 81% 29.76 in 10.0 mi WSW 5.8 mph - N/A   Clear
2:16 PM 35.6 °F 31.7 °F 28.4 °F 75% 29.76 in 10.0 mi SW 4.6 mph - N/A   Clear
2:36 PM 35.6 °F 30.7 °F 26.6 °F 70% 29.76 in 10.0 mi SSW 5.8 mph - N/A   Clear
2:56 PM 35.6 °F - 26.6 °F 70% 29.77 in 10.0 mi Calm Calm - N/A   Clear
3:16 PM 37.4 °F - 26.6 °F 65% 29.77 in 10.0 mi Calm Calm - N/A   Clear
3:36 PM 37.4 °F 34.9 °F 26.6 °F 65% 29.77 in 10.0 mi SSW 3.5 mph - N/A   Clear
3:56 PM 37.4 °F - 24.8 °F 60% 29.78 in 10.0 mi Calm Calm - N/A   Clear
4:16 PM 37.4 °F 34.9 °F 24.8 °F 60% 29.78 in 10.0 mi East 3.5 mph - N/A   Clear
4:36 PM 37.4 °F 32.8 °F 24.8 °F 60% 29.77 in 10.0 mi ESE 5.8 mph - N/A   Clear
4:56 PM 37.4 °F 33.8 °F 24.8 °F 60% 29.76 in 10.0 mi East 4.6 mph - N/A   Clear
5:16 PM 37.4 °F 33.8 °F 24.8 °F 60% 29.77 in 10.0 mi ESE 4.6 mph - N/A   Clear
5:36 PM 35.6 °F 30.7 °F 24.8 °F 65% 29.77 in 10.0 mi ESE 5.8 mph - N/A   Clear
5:56 PM 35.6 °F 31.7 °F 24.8 °F 65% 29.78 in 10.0 mi East 4.6 mph - N/A   Clear
6:16 PM 35.6 °F 30.7 °F 23.0 °F 60% 29.77 in 10.0 mi East 5.8 mph - N/A   Clear
6:36 PM 33.8 °F 28.6 °F 24.8 °F 70% 29.77 in 10.0 mi East 5.8 mph - N/A   Clear
6:56 PM 32.0 °F 26.4 °F 23.0 °F 69% 29.76 in 10.0 mi ENE 5.8 mph - N/A   Clear
7:16 PM 30.2 °F 23.4 °F 23.0 °F 75% 29.76 in 10.0 mi ENE 6.9 mph - N/A   Clear
7:36 PM 30.2 °F 24.3 °F 23.0 °F 75% 29.76 in 10.0 mi NE 5.8 mph - N/A   Clear
7:56 PM 30.2 °F 24.3 °F 24.8 °F 80% 29.76 in 10.0 mi NNE 5.8 mph - N/A   Clear
8:16 PM 30.2 °F 24.3 °F 24.8 °F 80% 29.76 in 10.0 mi NNE 5.8 mph - N/A   Clear
8:36 PM 30.2 °F 23.4 °F 24.8 °F 80% 29.76 in 10.0 mi NNE 6.9 mph - N/A   Clear
8:56 PM 30.2 °F 25.4 °F 24.8 °F 80% 29.75 in 10.0 mi NE 4.6 mph - N/A   Clear
9:16 PM 28.4 °F 22.2 °F 24.8 °F 86% 29.75 in 10.0 mi NE 5.8 mph - N/A   Clear
9:36 PM 28.4 °F 22.2 °F 24.8 °F 86% 29.74 in 10.0 mi NE 5.8 mph - N/A   Clear
9:56 PM 30.2 °F 23.4 °F 26.6 °F 86% 29.74 in 10.0 mi North 6.9 mph - N/A   Clear
10:16 PM 28.4 °F 23.3 °F 24.8 °F 86% 29.73 in 10.0 mi NNE 4.6 mph - N/A   Clear
10:36 PM 30.2 °F 25.4 °F 24.8 °F 80% 29.73 in 10.0 mi NNE 4.6 mph - N/A   Clear
10:56 PM 30.2 °F 25.4 °F 26.6 °F 86% 29.72 in 10.0 mi NE 4.6 mph - N/A   Clear
11:16 PM 30.2 °F - 24.8 °F 80% 29.71 in 10.0 mi Calm Calm - N/A   Scattered Clouds
11:36 PM 30.2 °F 26.7 °F 26.6 °F 86% 29.71 in 10.0 mi NNE 3.5 mph - N/A   Mostly Cloudy
11:56 PM 30.2 °F 24.3 °F 26.6 °F 86% 29.71 in 10.0 mi NE 5.8 mph - N/A   Overcast